Weather History for Taylorville, IL

Change the Weather History Date:

Sunday, January 6, 2013

  Actual Average (KSPI) Record (KSPI)
Temperature  
Mean Temperature 26 °F 27 °F  
Max Temperature 35 °F 35 °F 68 °F (1907)
Min Temperature 17 °F 19 °F -14 °F (1970)
Degree Days  
Heating Degree Days 39 38  
Month to date heating degree days 228  
Since 1 July heating degree days 2368  
Cooling Degree Days 0 0  
Month to date cooling degree days 0  
Year to date cooling degree days 0  
Moisture  
Dew Point 22 °F    
Average Humidity 79    
Maximum Humidity 100    
Minimum Humidity 69    
Precipitation  
Precipitation 0.00 in 0.06 in 1.64 in (1888)
Month to date precipitation 0.41  
Year to date precipitation 0.41  
Snow  
Snow 0.00 in 0.20 in 6.20 in (1962)
Month to date snowfall 1.3  
Since 1 July snowfall 7.5  
Snow Depth -    
Sea Level Pressure  
Sea Level Pressure 30.21 in    
Wind  
Wind Speed 12 mph (West)    
Max Wind Speed 22 mph    
Max Gust Speed 28 mph    
Visibility 9 miles    
Events      
T = Trace of Precipitation, MM = Missing Value Source: NWS Daily Summary

Daily Weather History Graph

Daily Weather History Graph

Search for Another Location

Airport:

Trip Planner

Search our weather history database for the weather conditions in past years. The results will help you decide how hot, cold, wet, or windy it might be!

Date:

Astronomy

Jan. 06, 2013 Rise Set
Actual Time 7:17 AM CST 4:48 PM CST
Civil Twilight 6:48 AM CST 5:18 PM CST
Nautical Twilight 6:14 AM CST 5:52 PM CST
Astronomical Twilight 5:41 AM CST 6:24 PM CST
Moon 1:32 AM CST (1/6) 12:15 PM CST (1/6)
Length of Visible Light 10h 30m
Length of Day
9h 30m
Waning Crescent, 33% of the Moon is Illuminated
Jan 6
Waning Crescent
Jan 11
New
Jan 18
First Quarter
Jan 26
Full
Feb 3
Last Quarter

Hourly Weather History & Observations

Time (CST) Temp. Windchill Dew Point Humidity Pressure Visibility Wind Dir Wind Speed Gust Speed Precip Events Conditions
12:15 AM 33.8 °F 24.8 °F 28.4 °F 81% 30.04 in 10.0 mi SSW 12.7 mph - N/A   Overcast
12:35 AM 33.8 °F 24.8 °F 28.4 °F 81% 30.04 in 10.0 mi SSW 12.7 mph - N/A   Overcast
12:55 AM 35.6 °F 27.1 °F 28.4 °F 75% 30.04 in 10.0 mi SSW 12.7 mph - N/A   Overcast
1:15 AM 35.6 °F 27.5 °F 28.4 °F 75% 30.03 in 10.0 mi SSW 11.5 mph - N/A   Overcast
1:35 AM 35.6 °F 28.0 °F 28.4 °F 75% 30.04 in 10.0 mi SSW 10.4 mph - N/A   Overcast
1:55 AM 35.6 °F 28.0 °F 28.4 °F 75% 30.04 in 10.0 mi SSW 10.4 mph - N/A   Overcast
2:15 AM 35.6 °F 28.0 °F 28.4 °F 75% 30.04 in 10.0 mi SSW 10.4 mph - N/A   Overcast
2:35 AM 33.8 °F 26.4 °F 28.4 °F 81% 30.04 in 10.0 mi SSW 9.2 mph - N/A   Overcast
2:55 AM 33.8 °F 27.0 °F 30.2 °F 87% 30.04 in 10.0 mi SW 8.1 mph - N/A   Overcast
3:15 AM 35.6 °F 27.1 °F 30.2 °F 81% 30.04 in 10.0 mi WSW 12.7 mph - N/A   Overcast
3:35 AM 35.6 °F 27.5 °F 30.2 °F 81% 30.03 in 10.0 mi West 11.5 mph 20.7 mph N/A   Overcast
3:55 AM 35.6 °F 25.9 °F 28.4 °F 75% 30.03 in 10.0 mi West 16.1 mph 20.7 mph N/A   Overcast
4:15 AM 32.0 °F 20.8 °F 24.8 °F 75% 30.04 in 10.0 mi WNW 17.3 mph 26.5 mph N/A   Overcast
4:35 AM 30.2 °F 18.5 °F 24.8 °F 80% 30.05 in 10.0 mi WNW 17.3 mph 23.0 mph N/A   Overcast
4:55 AM 30.2 °F 20.2 °F 24.8 °F 80% 30.06 in 10.0 mi WNW 12.7 mph - N/A   Overcast
5:15 AM 30.2 °F 21.3 °F 24.8 °F 80% 30.07 in 10.0 mi WNW 10.4 mph - N/A   Overcast
5:35 AM 30.2 °F 21.3 °F 24.8 °F 80% 30.07 in 10.0 mi WNW 10.4 mph - N/A   Overcast
5:55 AM 30.2 °F 19.3 °F 24.8 °F 80% 30.08 in 10.0 mi WNW 15.0 mph 21.9 mph N/A   Overcast
6:15 AM 30.2 °F 20.2 °F 24.8 °F 80% 30.09 in 10.0 mi WNW 12.7 mph 18.4 mph N/A   Overcast
6:35 AM 30.2 °F 20.2 °F 24.8 °F 80% 30.09 in 10.0 mi WNW 12.7 mph - N/A   Overcast
6:55 AM 30.2 °F 19.3 °F 24.8 °F 80% 30.10 in 10.0 mi WNW 15.0 mph - N/A   Overcast
7:15 AM 30.2 °F 20.8 °F 24.8 °F 80% 30.11 in 10.0 mi WNW 11.5 mph 23.0 mph N/A   Overcast
7:35 AM 30.2 °F 19.3 °F 23.0 °F 75% 30.11 in 10.0 mi WNW 15.0 mph 24.2 mph N/A   Overcast
7:55 AM 28.4 °F 14.7 °F 21.2 °F 74% 30.12 in 10.0 mi WNW 21.9 mph 25.3 mph N/A   Mostly Cloudy
8:15 AM 28.4 °F 17.5 °F 21.2 °F 74% 30.13 in 10.0 mi WNW 13.8 mph 24.2 mph N/A   Overcast
8:35 AM 28.4 °F 15.4 °F 21.2 °F 74% 30.14 in 10.0 mi WNW 19.6 mph 26.5 mph N/A   Overcast
8:55 AM 28.4 °F 15.8 °F 21.2 °F 74% 30.15 in 7.0 mi WNW 18.4 mph 27.6 mph N/A   Overcast
9:15 AM 28.4 °F 16.6 °F 21.2 °F 74% 30.16 in 5.0 mi WNW 16.1 mph 21.9 mph N/A   Haze
9:35 AM 28.4 °F 15.4 °F 21.2 °F 74% 30.18 in 7.0 mi WNW 19.6 mph 26.5 mph N/A   Scattered Clouds
9:55 AM 28.4 °F 16.6 °F 19.4 °F 69% 30.19 in 7.0 mi WNW 16.1 mph 26.5 mph N/A   Scattered Clouds
10:15 AM 28.4 °F 16.6 °F 19.4 °F 69% 30.20 in 7.0 mi WNW 16.1 mph 26.5 mph N/A   Scattered Clouds
10:35 AM 26.6 °F 12.4 °F 19.4 °F 74% 30.20 in 7.0 mi WNW 21.9 mph - N/A   Scattered Clouds
10:55 AM 26.6 °F 13.4 °F 21.2 °F 80% 30.21 in 7.0 mi WNW 18.4 mph 26.5 mph N/A   Clear
11:15 AM 28.4 °F 15.4 °F 21.2 °F 74% 30.21 in 7.0 mi WNW 19.6 mph 23.0 mph N/A   Clear
11:35 AM 26.6 °F 13.1 °F 19.4 °F 74% 30.21 in 10.0 mi WNW 19.6 mph - N/A   Clear
11:55 AM 28.4 °F 16.6 °F 21.2 °F 74% 30.20 in 10.0 mi WNW 16.1 mph 23.0 mph N/A   Clear
12:15 PM 28.4 °F 15.8 °F 21.2 °F 74% 30.21 in 10.0 mi West 18.4 mph 25.3 mph N/A   Clear
12:35 PM 30.2 °F 18.1 °F 21.2 °F 69% 30.21 in 10.0 mi West 18.4 mph - N/A   Clear
12:55 PM 30.2 °F 18.5 °F 21.2 °F 69% 30.22 in 10.0 mi WNW 17.3 mph - N/A   Clear
1:15 PM 30.2 °F 19.8 °F 21.2 °F 69% 30.22 in 10.0 mi WNW 13.8 mph 21.9 mph N/A   Scattered Clouds
1:35 PM 30.2 °F 19.8 °F 23.0 °F 75% 30.23 in 7.0 mi WNW 13.8 mph 18.4 mph N/A   Scattered Clouds
1:55 PM 32.0 °F 22.5 °F 23.0 °F 69% 30.24 in 10.0 mi WNW 12.7 mph 20.7 mph N/A   Scattered Clouds
2:15 PM 30.2 °F 21.9 °F 21.2 °F 69% 30.25 in 10.0 mi WNW 9.2 mph - N/A   Mostly Cloudy
2:35 PM 30.2 °F 19.8 °F 23.0 °F 75% 30.26 in 10.0 mi West 13.8 mph - N/A   Mostly Cloudy
2:55 PM 30.2 °F 20.8 °F 23.0 °F 75% 30.27 in 10.0 mi WNW 11.5 mph 18.4 mph N/A   Scattered Clouds
3:15 PM 30.2 °F 21.3 °F 21.2 °F 69% 30.28 in 10.0 mi WNW 10.4 mph - N/A   Clear
3:35 PM 30.2 °F 21.9 °F 21.2 °F 69% 30.29 in 10.0 mi West 9.2 mph - N/A   Clear
3:55 PM 30.2 °F 20.8 °F 21.2 °F 69% 30.29 in 10.0 mi West 11.5 mph - N/A   Clear
4:15 PM 28.4 °F 18.5 °F 21.2 °F 74% 30.30 in 10.0 mi West 11.5 mph - N/A   Clear
4:35 PM 28.4 °F 21.2 °F 21.2 °F 74% 30.30 in 10.0 mi West 6.9 mph - N/A   Clear
4:55 PM 28.4 °F 24.6 °F 21.2 °F 74% 30.30 in 10.0 mi West 3.5 mph - N/A   Clear
5:15 PM 26.6 °F 20.0 °F 21.2 °F 80% 30.31 in 10.0 mi West 5.8 mph - N/A   Clear
5:35 PM 26.6 °F 18.2 °F 21.2 °F 80% 30.32 in 10.0 mi West 8.1 mph - N/A   Clear
5:55 PM 26.6 °F 18.2 °F 21.2 °F 80% 30.33 in 10.0 mi WNW 8.1 mph - N/A   Clear
6:15 PM 26.6 °F 19.1 °F 21.2 °F 80% 30.34 in 10.0 mi WNW 6.9 mph - N/A   Clear
6:35 PM 26.6 °F 20.0 °F 21.2 °F 80% 30.35 in 10.0 mi WNW 5.8 mph - N/A   Clear
6:55 PM 26.6 °F 21.2 °F 19.4 °F 74% 30.35 in 10.0 mi WNW 4.6 mph - N/A   Clear
7:15 PM 26.6 °F 21.2 °F 19.4 °F 74% 30.35 in 10.0 mi WNW 4.6 mph - N/A   Clear
7:35 PM 24.8 °F 20.5 °F 19.4 °F 80% 30.35 in 10.0 mi West 3.5 mph - N/A   Clear
7:55 PM 24.8 °F 20.5 °F 19.4 °F 80% 30.35 in 10.0 mi West 3.5 mph - N/A   Clear
8:15 PM 24.8 °F 20.5 °F 19.4 °F 80% 30.35 in 10.0 mi West 3.5 mph - N/A   Clear
8:35 PM 23.0 °F - 19.4 °F 86% 30.35 in 10.0 mi Calm Calm - N/A   Clear
8:55 PM 21.2 °F 16.4 °F 17.6 °F 86% 30.36 in 10.0 mi SSW 3.5 mph - N/A   Clear
9:15 PM 21.2 °F 16.4 °F 19.4 °F 93% 30.36 in 10.0 mi WSW 3.5 mph - N/A   Clear
9:35 PM 21.2 °F 16.4 °F 19.4 °F 93% 30.36 in 10.0 mi WSW 3.5 mph - N/A   Clear
9:55 PM 21.2 °F - 19.4 °F 93% 30.35 in 10.0 mi Calm Calm - N/A   Clear
10:15 PM 19.4 °F - 19.4 °F 100% 30.36 in 10.0 mi Calm Calm - N/A   Clear
10:35 PM 19.4 °F - 17.6 °F 93% 30.35 in 7.0 mi Calm Calm - N/A   Clear
10:55 PM 19.4 °F - 17.6 °F 93% 30.36 in 7.0 mi Calm Calm - N/A   Clear
11:15 PM 19.4 °F - 17.6 °F 93% 30.36 in 7.0 mi Calm Calm - N/A   Clear
11:35 PM 17.6 °F 12.3 °F 17.6 °F 100% 30.36 in 7.0 mi SSE 3.5 mph - N/A   Clear
11:55 PM 19.4 °F 14.3 °F 17.6 °F 93% 30.36 in 7.0 mi SSE 3.5 mph - N/A   Clear